IRIDIUM 106 1 41917U 17003A 26169.21178500 .00000054 00000+0 12264-4 0 9998 2 41917 86.3962 88.1280 0001878 86.7540 273.3870 14.34217767493355 IRIDIUM 103 1 41918U 17003B 26169.19910070 .00000008 00000+0 -42867-5 0 9995 2 41918 86.3964 88.0331 0002176 76.9390 283.2048 14.34217448493375 IRIDIUM 109 1 41919U 17003C 26168.85660047 .00000225 00000+0 73175-4 0 9999 2 41919 86.3963 88.2357 0002291 83.2880 276.8577 14.34218472493292 IRIDIUM 102 1 41920U 17003D 26168.82488453 .00000153 00000+0 47516-4 0 9997 2 41920 86.3960 88.1725 0002215 85.5779 274.5670 14.34219207493372 IRIDIUM 105 1 41921U 17003E 26169.13232884 .00000169 00000+0 53394-4 0 9996 2 41921 86.3966 56.4756 0002547 82.3138 277.8347 14.34216690495274 IRIDIUM 104 1 41922U 17003F 26169.18641551 .00000017 00000+0 -10741-5 0 9990 2 41922 86.3962 88.0639 0002331 79.9549 280.1910 14.34217635493418 IRIDIUM 114 1 41923U 17003G 26169.19275778 .00000053 00000+0 11732-4 0 9995 2 41923 86.3962 88.0445 0002311 80.8510 279.2947 14.34217862493399 IRIDIUM 108 1 41924U 17003H 26169.08150593 .00000177 00000+0 56256-4 0 9998 2 41924 86.3958 56.3865 0002248 86.4696 273.6757 14.34219763495239 IRIDIUM 112 1 41925U 17003J 26169.18007335 .00000040 00000+0 72264-5 0 9992 2 41925 86.3959 87.8918 0002309 83.1813 276.9646 14.34217542493416 IRIDIUM 111 1 41926U 17003K 26169.23716474 .00000219 00000+0 71259-4 0 9990 2 41926 86.3960 87.9385 0002245 82.9609 277.1842 14.34218297493405 IRIDIUM 113 1 42803U 17039A 26168.93804624 .00000015 00000+0 -16610-5 0 9991 2 42803 86.3966 321.8649 0002165 89.3282 270.8162 14.34217631471297 IRIDIUM 123 1 42804U 17039B 26169.04929236 .00000064 00000+0 15655-4 0 9992 2 42804 86.3972 353.2766 0001982 86.4661 273.6762 14.34217888470075 IRIDIUM 120 1 42805U 17039C 26168.93170363 .00000200 00000+0 64403-4 0 9996 2 42805 86.3960 321.6497 0002037 95.7024 264.4404 14.34216829471280 IRIDIUM 115 1 42806U 17039D 26168.95053970 .00000204 00000+0 54788-4 0 9992 2 42806 86.4497 321.7705 0002004 91.2365 268.9066 14.43276413474374 IRIDIUM 118 1 42807U 17039E 26169.01123622 .00000139 00000+0 42719-4 0 9991 2 42807 86.3972 353.2906 0002209 89.4674 270.6774 14.34217020470061 IRIDIUM 117 1 42808U 17039F 26169.03026512 -.00000014 00000+0 -11957-4 0 9998 2 42808 86.3967 353.2405 0002006 87.2468 272.8958 14.34217454470094 IRIDIUM 126 1 42809U 17039G 26169.05563324 .00000175 00000+0 55427-4 0 9994 2 42809 86.3970 353.2809 0002237 88.1798 271.9654 14.34217227470078 IRIDIUM 124 1 42810U 17039H 26168.81503014 .00000318 00000+0 88654-4 0 9996 2 42810 86.4484 290.0963 0002189 94.8057 265.3394 14.43278512475200 IRIDIUM 128 1 42811U 17039J 26169.11614214 -.00000016 00000+0 -12755-4 0 9992 2 42811 86.3964 24.7617 0001901 88.7973 271.3440 14.34217454470113 IRIDIUM 121 1 42812U 17039K 26169.00489468 -.00000145 00000+0 -58673-4 0 9994 2 42812 86.3966 353.3300 0002057 91.3591 268.7841 14.34216928469944 IRIDIUM 133 1 42955U 17061A 26169.07808652 .00000026 00000+0 22493-5 0 9992 2 42955 86.3966 24.8954 0001994 86.8208 273.3216 14.34217098454907 IRIDIUM 100 1 42956U 17061B 26169.07174405 .00000067 00000+0 16728-4 0 9993 2 42956 86.3967 24.8169 0002162 87.4266 272.7177 14.34217189454906 IRIDIUM 122 1 42957U 17061C 26169.10979985 .00000045 00000+0 90468-5 0 9994 2 42957 86.3967 24.8010 0002134 84.0211 276.1228 14.34217867454913 IRIDIUM 129 1 42958U 17061D 26169.06540188 .00000027 00000+0 26217-5 0 9990 2 42958 86.3966 24.8868 0002308 85.4211 274.7248 14.34217729454926 IRIDIUM 119 1 42959U 17061E 26169.03368784 .00000064 00000+0 15740-4 0 9997 2 42959 86.3967 24.8958 0002201 84.2661 275.8786 14.34218248454933 IRIDIUM 107 1 42960U 17061F 26169.12248498 .00000135 00000+0 41300-4 0 9998 2 42960 86.3968 24.8798 0001933 82.1968 277.9447 14.34217387454958 IRIDIUM 132 1 42961U 17061G 26169.12882763 .00000063 00000+0 15557-4 0 9993 2 42961 86.3967 24.8567 0002152 85.4941 274.6500 14.34217889454954 IRIDIUM 136 1 42962U 17061H 26169.09077884 .00000201 00000+0 64724-4 0 9994 2 42962 86.3968 24.8793 0002182 88.5145 271.6301 14.34219987454968 IRIDIUM 139 1 42963U 17061J 26169.09711450 -.00000021 00000+0 -14672-4 0 9998 2 42963 86.3967 24.9386 0001961 88.1850 271.9571 14.34217430454974 IRIDIUM 125 1 42964U 17061K 26169.29374433 .00000227 00000+0 73906-4 0 9998 2 42964 86.3972 24.9175 0002151 72.8798 287.2633 14.34215022455010 IRIDIUM 135 1 43070U 17083A 26168.91901874 -.00000009 00000+0 -10297-4 0 9998 2 43070 86.3961 321.7094 0002068 91.5646 268.5787 14.34217310444250 IRIDIUM 138 1 43071U 17083B 26168.94438823 .00000088 00000+0 24350-4 0 9991 2 43071 86.3979 321.3942 0002309 87.0675 273.0785 14.34217799444247 IRIDIUM 116 1 43072U 17083C 26168.98244360 -.00000006 00000+0 -90295-5 0 9991 2 43072 86.3960 321.6688 0001878 99.6975 260.4433 14.34217536444283 IRIDIUM 130 1 43073U 17083D 26168.95072769 .00000145 00000+0 44815-4 0 9999 2 43073 86.3972 321.9572 0001942 92.8405 267.3013 14.34219098444226 IRIDIUM 151 1 43074U 17083E 26168.92536130 -.00000010 00000+0 -10564-4 0 9991 2 43074 86.3962 321.7506 0002051 93.2538 266.8893 14.34217308444249 IRIDIUM 134 1 43075U 17083F 26168.96341679 -.00000053 00000+0 -26117-4 0 9996 2 43075 86.3963 321.7426 0002001 92.0027 268.1398 14.34217033444214 IRIDIUM 137 1 43076U 17083G 26168.90633280 .00000013 00000+0 -24687-5 0 9999 2 43076 86.3965 321.8594 0002180 104.4062 255.7376 14.34217657444275 IRIDIUM 141 1 43077U 17083H 26168.96975853 .00000024 00000+0 16631-5 0 9992 2 43077 86.3964 321.6631 0002218 90.9645 269.1805 14.34217800444280 IRIDIUM 153 1 43078U 17083J 26169.27078080 .00000026 00000+0 23740-5 0 9995 2 43078 86.3961 290.0176 0002243 89.6647 270.4805 14.34217601445438 IRIDIUM 131 1 43079U 17083K 26168.95707256 .00000082 00000+0 22389-4 0 9993 2 43079 86.3970 321.8543 0002202 91.6071 268.5377 14.34217351444218 IRIDIUM 144 1 43249U 18030A 26169.27712276 .00000164 00000+0 51389-4 0 9992 2 43249 86.3959 289.9439 0002108 97.2777 262.8659 14.34217270430295 IRIDIUM 149 1 43250U 18030B 26168.86485495 .00000042 00000+0 78425-5 0 9994 2 43250 86.3958 290.0834 0002263 93.5840 266.5615 14.34217604430250 IRIDIUM 157 1 43251U 18030C 26168.88388284 -.00000026 00000+0 -16234-4 0 9998 2 43251 86.3956 290.1289 0002099 93.9207 266.2229 14.34217211430232 IRIDIUM 140 1 43252U 18030D 26169.32152134 .00000013 00000+0 -25076-5 0 9992 2 43252 86.3955 289.9585 0002027 93.8500 266.2928 14.34217471430350 IRIDIUM 145 1 43253U 18030E 26168.89022496 .00000027 00000+0 27423-5 0 9993 2 43253 86.3960 290.1108 0002019 101.3483 258.7940 14.34217426430224 IRIDIUM 146 1 43254U 18030F 26169.28980518 .00000156 00000+0 48689-4 0 9995 2 43254 86.3960 289.9560 0002130 96.9137 263.2301 14.34219163430291 IRIDIUM 148 1 43255U 18030G 26169.32786427 .00000007 00000+0 -46685-5 0 9995 2 43255 86.3958 289.9835 0002151 96.1418 264.0023 14.34217487430333 IRIDIUM 142 1 43256U 18030H 26169.29615128 .00000006 00000+0 -47985-5 0 9994 2 43256 86.3954 289.8856 0002018 99.2670 260.8754 14.34217244430299 IRIDIUM 150 1 43257U 18030J 26169.26443779 .00000049 00000+0 10474-4 0 9991 2 43257 86.3960 290.0151 0002153 93.8168 266.3274 14.34217786430313 IRIDIUM 143 1 43258U 18030K 26169.31517878 .00000012 00000+0 -29563-5 0 9991 2 43258 86.3960 290.0866 0001996 96.8190 263.3233 14.34217321430259 IRIDIUM 161 1 43478U 18047C 26169.20895832 .00000200 00000+0 53550-4 0 9990 2 43478 86.4482 88.0438 0002579 84.2526 275.8969 14.43278772425283 IRIDIUM 152 1 43479U 18047D 26168.86928657 .00000158 00000+0 49224-4 0 9999 2 43479 86.3957 88.0472 0002339 82.7690 277.3771 14.34217225422581 IRIDIUM 147 1 43480U 18047E 26168.87562837 .00000011 00000+0 -30515-5 0 9999 2 43480 86.3959 88.0496 0002031 85.7468 274.3960 14.34217471422586 IRIDIUM 110 1 43481U 18047F 26169.23081456 .00000158 00000+0 49495-4 0 9991 2 43481 86.3961 87.9931 0002562 81.5818 278.5668 14.34217781422624 IRIDIUM 162 1 43482U 18047G 26169.20266300 .00000278 00000+0 76581-4 0 9991 2 43482 86.4482 87.9377 0002256 82.3492 277.7965 14.43282192425278 IRIDIUM 160 1 43569U 18061A 26169.17664901 .00000006 00000+0 -50696-5 0 9998 2 43569 86.3960 56.3836 0002159 85.6574 274.4868 14.34217605413510 IRIDIUM 166 1 43570U 18061B 26169.13225094 .00000003 00000+0 -58323-5 0 9994 2 43570 86.3959 56.3526 0002010 86.8873 273.2553 14.34217498413537 IRIDIUM 158 1 43571U 18061C 26169.10053772 .00000002 00000+0 -61806-5 0 9993 2 43571 86.3959 56.3759 0002089 82.4289 277.7144 14.34217345413496 IRIDIUM 165 1 43572U 18061D 26169.12590799 .00000065 00000+0 16319-4 0 9997 2 43572 86.3962 56.4118 0002064 87.1563 272.9869 14.34217464413528 IRIDIUM 155 1 43573U 18061E 26169.15762114 .00000048 00000+0 10086-4 0 9999 2 43573 86.3958 56.2675 0002111 83.4116 276.7320 14.34217806413496 IRIDIUM 154 1 43574U 18061F 26169.13859202 .00000124 00000+0 37379-4 0 9992 2 43574 86.3960 56.4089 0002123 87.4810 272.6629 14.34216711413546 IRIDIUM 163 1 43575U 18061G 26169.11956371 .00000039 00000+0 66933-5 0 9990 2 43575 86.3959 56.3323 0002235 83.3316 276.8135 14.34216412413518 IRIDIUM 156 1 43576U 18061H 26168.74535392 .00000208 00000+0 67118-4 0 9998 2 43576 86.3963 56.4961 0002108 83.1935 276.9500 14.34216794413450 IRIDIUM 164 1 43577U 18061J 26169.07516704 .00000150 00000+0 46522-4 0 9994 2 43577 86.3959 56.3984 0002159 88.9218 271.2225 14.34217293413540 IRIDIUM 159 1 43578U 18061K 26169.11322382 .00000033 00000+0 46086-5 0 9993 2 43578 86.3960 56.3194 0002268 83.6656 276.4799 14.34217507413513 IRIDIUM 180 1 43922U 19002A 26169.04295012 .00000127 00000+0 38375-4 0 9998 2 43922 86.3970 353.2396 0002252 89.1614 270.9840 14.34217375389115 IRIDIUM 176 1 43923U 19002B 26169.04250570 .00000618 00000+0 94010-4 0 9992 2 43923 86.6091 353.1832 0002298 92.9953 267.1527 14.72268096399372 IRIDIUM 168 1 43924U 19002C 26169.03660477 .00000122 00000+0 36630-4 0 9997 2 43924 86.3974 353.3196 0002200 89.7416 270.4032 14.34219162389090 IRIDIUM 173 1 43925U 19002D 26169.02392269 .00000176 00000+0 55672-4 0 9994 2 43925 86.3969 353.2138 0002178 87.3591 272.7854 14.34217079389072 IRIDIUM 169 1 43926U 19002E 26169.29557982 .00000218 00000+0 64853-4 0 9997 2 43926 86.4223 24.7299 0001813 73.4393 286.7004 14.38609452390388 IRIDIUM 172 1 43927U 19002F 26169.01757768 .00000154 00000+0 48020-4 0 9999 2 43927 86.3970 353.2244 0002253 88.7155 271.4299 14.34218865389083 IRIDIUM 175 1 43928U 19002G 26169.31556701 .00000267 00000+0 72828-4 0 9995 2 43928 86.4514 290.0491 0002644 175.5177 184.6048 14.43613239399143 IRIDIUM 171 1 43929U 19002H 26169.06832052 -.00000033 00000+0 -18761-4 0 9993 2 43929 86.3975 353.5094 0001936 91.1894 268.9523 14.34217406389082 IRIDIUM 170 1 43930U 19002J 26169.04868592 .00000610 00000+0 92773-4 0 9995 2 43930 86.6091 353.1830 0002356 89.3305 270.8182 14.72268543399380 IRIDIUM 167 1 43931U 19002K 26169.06197762 .00000011 00000+0 -29859-5 0 9994 2 43931 86.3967 353.2282 0001770 92.4663 267.6735 14.34217556389083 IRIDIUM 181 1 56726U 23068S 26169.07706221 .00000279 00000+0 76971-4 0 9995 2 56726 86.4498 56.4186 0002357 88.4368 271.7103 14.43312952162566 IRIDIUM 177 1 56727U 23068T 26168.93099498 .00000505 00000+0 62963-4 0 9999 2 56727 86.1965 328.4382 0002371 88.8660 271.2833 14.80225589166477 IRIDIUM 174 1 56728U 23068U 26169.03635136 .00000636 00000+0 96901-4 0 9991 2 56728 86.6098 353.3357 0002448 84.0720 276.0776 14.72264970166140 IRIDIUM 178 1 56729U 23068V 26169.12292852 .00000778 00000+0 98969-4 0 9999 2 56729 86.6536 24.9691 0002624 85.6325 274.5197 14.80235252166504 IRIDIUM 179 1 56730U 23068W 26169.11753129 .00000725 00000+0 91909-4 0 9998 2 56730 86.6774 33.9542 0002465 88.3996 271.7508 14.80232457166501